TIANMU-1 07

Last updated on Tue Oct 21 2025 00:02:23 GMT+0000 (Coordinated Universal Time)

1 57399U 23101A 25293.66480532 .00010896 00000+0 41393-3 0 9991 2 57399 97.2960 344.7044 0002387 258.5849 101.5122 15.26979176125053
UTC large
Height (km)
Speed (km/s)
/
Latitude / Longitude
Inclination (degrees)
Orbital Period (minutes)
Azimuth
Elevation
Range (km)
Doppler Factor

Next 0 passes for location: London (51.5072 / 0.1276)

Sorry there are no passes over London.